EW3867 Weather Reports


time (UTC)temp
C
wind
direction
speed
KPH
gust
KPH
rain 1hr
cm
rain 24hr
cm
rain mn
cm
humidity
%
barometer
mb
20260510110529 6 355 0.0 0.0 0.00 0.00 0.00 24 1008.3
20260510104429 7 355 11.3 19.3 0.00 0.00 0.00 23 1008.1
20260510102220 5 345 0.0 11.3 0.00 0.00 0.00 26 1007.8
20260510101225 6 342 1.6 12.9 0.00 0.00 0.00 25 1007.7
20260510100153 6 337 0.0 8.0 0.00 0.00 0.00 25 1007.7
20260510095123 7 335 0.0 0.0 0.00 0.00 0.00 24 1007.7
20260510094126 8 335 0.0 0.0 0.00 0.00 0.00 22 1007.5
20260510093105 11 334 1.6 16.1 0.00 0.00 0.00 20 1007.4
20260510092109 11 330 0.0 12.9 0.00 0.00 0.00 20 1007.4
20260510091112 11 0 6.4 17.7 0.00 0.00 0.00 20 1007.3
20260510090135 11 331 9.7 19.3 0.00 0.00 0.00 20 1007.1
20260510085158 11 335 14.5 19.3 0.00 0.00 0.00 21 1007.1
20260510083029 11 342 6.4 17.7 0.00 0.00 0.00 21 1006.9
20260510082023 11 343 6.4 16.1 0.00 0.00 0.00 21 1007.0
20260510075908 11 345 4.8 14.5 0.00 0.00 0.00 22 1007.0
20260510074859 11 338 0.0 12.9 0.00 0.00 0.00 22 1007.0
20260510073853 11 346 0.0 11.3 0.00 0.00 0.00 24 1007.1
20260510072822 11 347 0.0 1.6 0.00 0.00 0.00 24 1007.1
20260510071800 11 348 0.0 14.5 0.00 0.00 0.00 25 1007.0
20260510070743 11 347 4.8 16.1 0.00 0.00 0.00 25 1007.1
20260510064530 10 350 1.6 14.5 0.00 0.00 0.00 28 1007.0
20260510062407 10 0 1.6 12.9 0.00 0.00 0.00 31 1006.8
20260510061341 10 14 0.0 11.3 0.00 0.00 0.00 32 1006.6
20260510060316 9 9 0.0 11.3 0.00 0.00 0.00 34 1006.6
20260510055252 8 9 0.0 0.0 0.00 0.00 0.00 36 1006.4
20260510054228 8 9 0.0 0.0 0.00 0.00 0.00 36 1006.5
20260510052030 10 9 0.0 0.0 0.00 0.00 0.00 35 1006.3
20260510051016 10 9 0.0 0.0 0.00 0.00 0.00 36 1006.3
20260510045953 10 9 0.0 0.0 0.00 0.00 0.00 36 1006.3
20260510044933 10 9 0.0 0.0 0.00 0.00 0.00 36 1006.3
20260510043957 10 9 0.0 0.0 0.00 0.00 0.00 34 1006.2
20260510042950 11 9 0.0 0.0 0.00 0.00 0.00 33 1006.1
20260510041955 11 9 0.0 0.0 0.00 0.00 0.00 33 1006.1
20260510040938 11 0 0.0 4.8 0.00 0.00 0.00 34 1006.1
20260510035918 12 0 0.0 0.0 0.00 0.00 0.00 32 1006.0
20260510034847 12 0 0.0 0.0 0.00 0.00 0.00 31 1005.8
20260510033849 13 0 0.0 1.6 0.00 0.00 0.00 30 1005.7
20260510032903 14 0 0.0 0.0 0.00 0.00 0.00 28 1005.5
20260510030739 15 0 0.0 1.6 0.00 0.00 0.00 26 1005.2
20260510025713 15 0 0.0 0.0 0.00 0.00 0.00 26 1005.1
20260510023454 16 0 0.0 0.0 0.00 0.00 0.00 25 1004.9
20260510021321 17 0 0.0 0.0 0.00 0.00 0.00 24 1004.7
20260510020344 18 0 0.0 0.0 0.00 0.00 0.00 24 1004.9
20260510015356 18 344 9.7 0.0 0.00 0.00 0.00 24 1004.8
20260510013253 19 343 25.7 37.0 0.00 0.00 0.00 23 1004.4
20260510012306 19 330 20.9 30.6 0.00 0.00 0.00 22 1004.4
20260510011241 19 349 20.9 40.2 0.00 0.00 0.00 23 1004.2
20260510010301 19 340 22.5 40.2 0.00 0.00 0.00 22 1004.2
20260510005240 20 347 14.5 33.8 0.00 0.00 0.00 22 1004.2
20260510004257 20 336 14.5 25.7 0.00 0.00 0.00 21 1003.9
20260510002140 21 0 6.4 24.1 0.00 0.00 0.00 20 1003.6
20260510001133 21 0 11.3 24.1 0.00 0.00 0.00 21 1003.6
20260510000150 21 331 24.1 32.2 0.00 0.00 0.00 20 1003.6
20260509235133 20 348 27.4 35.4 0.00 0.00 0.00 22 1003.5
20260509234118 21 355 27.4 37.0 0.00 0.00 0.00 21 1003.5
20260509233057 21 11 30.6 43.5 0.00 0.00 0.00 22 1003.5
20260509232028 21 355 30.6 43.5 0.00 0.00 0.00 21 1003.6
20260509231035 22 338 32.2 45.1 0.00 0.00 0.00 21 1003.5
20260509230001 22 0 30.6 45.1 0.00 0.00 0.00 21 1003.6
20260509224955 22 355 32.2 51.5 0.00 0.00 0.00 21 1003.5
20260509222821 22 355 32.2 45.1 0.00 0.00 0.00 20 1003.8
20260509221755 23 331 29.0 40.2 0.00 0.00 0.00 19 1003.5
20260509220817 22 348 27.4 40.2 0.00 0.00 0.00 18 1003.6
20260509215749 22 0 24.1 33.8 0.00 0.00 0.00 17 1003.7
20260509214749 22 0 14.5 27.4 0.00 0.00 0.00 18 1003.5
20260509201644 23 335 11.3 24.1 0.00 0.00 0.00 16 1004.2
20260509200702 24 0 12.9 33.8 0.00 0.00 0.00 15 1004.3
20260509195642 23 262 11.3 32.2 0.00 0.00 0.00 15 1004.2
20260509194623 23 0 6.4 11.3 0.00 0.00 0.00 17 1004.4
20260509193557 23 349 11.3 45.1 0.00 0.00 0.00 15 1004.1
20260509192602 23 339 16.1 33.8 0.00 0.00 0.00 16 1004.7
20260509191552 23 0 12.9 33.8 0.00 0.00 0.00 16 1004.8
20260509190550 24 0 12.9 29.0 0.00 0.00 0.00 15 1004.9
20260509185540 23 340 12.9 30.6 0.00 0.00 0.00 15 1005.0
20260509184548 24 265 17.7 32.2 0.00 0.00 0.00 16 1005.2
20260509183541 24 0 12.9 32.2 0.00 0.00 0.00 16 1005.1
20260509182526 24 238 9.7 27.4 0.00 0.00 0.00 17 1005.4
20260509181522 23 0 11.3 27.4 0.00 0.00 0.00 17 1005.5
20260509180528 23 0 14.5 37.0 0.00 0.00 0.00 18 1005.7
20260509174341 23 0 17.7 35.4 0.00 0.00 0.00 17 1005.7
20260509172202 23 0 20.9 46.7 0.00 0.00 0.00 18 1005.9
20260509164917 23 0 9.7 35.4 0.00 0.00 0.00 18 1006.0
20260509161648 22 336 22.5 35.4 0.00 0.00 0.00 18 1006.1
20260509160651 21 0 11.3 25.7 0.00 0.00 0.00 18 1006.0
20260509155629 22 0 17.7 32.2 0.00 0.00 0.00 19 1006.1
20260509154638 21 0 17.7 32.2 0.00 0.00 0.00 18 1006.1
20260509153636 21 332 11.3 32.2 0.00 0.00 0.00 18 1006.1
20260509152637 21 342 14.5 24.1 0.00 0.00 0.00 19 1006.1
20260509145404 20 0 6.4 17.7 0.00 0.00 0.00 20 1006.3
20260509144352 19 0 6.4 19.3 0.00 0.00 0.00 20 1006.3
20260509143353 18 0 6.4 17.7 0.00 0.00 0.00 20 1006.3
20260509142354 18 0 1.6 16.1 0.00 0.00 0.00 22 1006.4
20260509141406 17 0 0.0 8.0 0.00 0.00 0.00 24 1006.3
20260509140406 16 0 0.0 3.2 0.00 0.00 0.00 26 1006.4
20260509135352 15 0 0.0 0.0 0.00 0.00 0.00 27 1006.4
20260509133221 13 0 0.0 0.0 0.00 0.00 0.00 32 1006.5
20260509132220 11 0 0.0 0.0 0.00 0.00 0.00 35 1006.4
20260509131235 10 0 0.0 0.0 0.00 0.00 0.00 36 1006.4
20260509130239 10 0 0.0 0.0 0.00 0.00 0.00 37 1006.3
20260509125208 9 0 0.0 0.0 0.00 0.00 0.00 37 1006.1
20260509124224 9 0 0.0 0.0 0.00 0.00 0.00 37 1005.9
20260509123208 8 0 0.0 0.0 0.00 0.00 0.00 38 1005.9
20260509122219 8 0 0.0 0.0 0.00 0.00 0.00 37 1005.7
20260509121231 8 0 0.0 1.6 0.00 0.00 0.00 37 1005.5
20260509120206 9 0 0.0 0.0 0.00 0.00 0.00 36 1005.4
20260509115219 9 0 0.0 0.0 0.00 0.00 0.00 36 1005.5
20260509114207 8 0 0.0 0.0 0.00 0.00 0.00 37 1005.3
20260509113230 9 0 0.0 0.0 0.00 0.00 0.00 36 1005.2